Location: La Silve
(44.2414°N, 5.8889°E)
Time: 17:35:10
(UTC+00:00)

Meteor 1-10 Rocket - Pass Details

Date: 01 December 2020
Orbit: 836 x 910 km, 81.3° (Epoch: 23 January)

Event Time Altitude Azimuth Distance (km) Brightness Sun altitude
Rises 18:16:48 0° 192° (SSW) 3,428 7.6 -24.1°
Reaches altitude 10° 18:19:14 10° 194° (SSW) 2,485 6.9 -24.5°
Maximum altitude 18:24:52 78° 281° (W) 872 4.2 -25.5°
Enters shadow 18:28:30 23° 5° (N) 1,739 5.7 -26.1°
